sat.trackr.live / text

‹ back to catalog

STARLINK-35236

NORAD 66008 · 2025-232D

PAYLOAD ACTIVE UNKNOWN

§ Identity

Operator
Country
US
Launch date
2025-10-16
Launch site
AFETR
Launch vehicle
Mass (kg)
RCS (m²)

Purposes: comms

External: N2YO · Heavens-Above · Gunter

§ Orbital elements

Epoch: 2026-09-20T06:20:00.550464Z

Period
93.85 min
Inclination
53.1569°
Eccentricity
0.0001229
Mean motion
15.34405811 rev/d
Perigee alt
461.8 km
Apogee alt
463.5 km
Semi-major
6,840.8 km
B*
3.7014e-4
RAAN
276.7350°
Arg perigee
85.2917°
Mean anomaly
274.8226°
Rev number
5,325

§ Raw data

STARLINK-352361 66008U 25232D   26263.26389526  .00012152  00000+0  37014-3 0  99922 66008  53.1569 276.7350 0001229  85.2917 274.8226 15.34405811 53255

JSON: /api/v1/satellites/66008 · /tle

For live sub-satellite position, see the globe view (requires WebGL).

§ Visibility from observer

Set your observer location to see the next 7 days of passes ≥ 10°. The values pass through the URL so the page stays shareable.

No JS? Fill the form by hand. The geolocation button needs JavaScript.